�������l�o���
Date,Time,MP-1(��Sv/h),MP-2(��Sv/h),MP-3(��Sv/h),MP-4(��Sv/h),MP-5(��Sv/h),MP-6(��Sv/h),MP-7(��Sv/h),����,����(m/s),���J
2018/03/31,00:00,0.324,0.205,0.336,0.320,0.304,0.166,0.100,�k�k��,0.8,��
2018/03/31,00:10,0.326,0.206,0.337,0.320,0.303,0.167,0.101,�k,2.1,��
2018/03/31,00:20,0.325,0.207,0.336,0.322,0.304,0.166,0.100,�k,1.7,��
2018/03/31,00:30,0.325,0.206,0.335,0.320,0.305,0.166,0.100,-,CALM,��
2018/03/31,00:40,0.325,0.206,0.336,0.320,0.305,0.167,0.101,-,CALM,��
2018/03/31,00:50,0.325,0.206,0.335,0.320,0.304,0.166,0.100,-,CALM,��
2018/03/31,01:00,0.325,0.207,0.336,0.318,0.304,0.168,0.100,�k,3.6,��
2018/03/31,01:10,0.325,0.206,0.336,0.320,0.304,0.166,0.100,�k,4.5,��
2018/03/31,01:20,0.324,0.206,0.335,0.320,0.304,0.167,0.101,�k,3.1,��
2018/03/31,01:30,0.326,0.207,0.337,0.320,0.303,0.167,0.101,�k,3.7,��
2018/03/31,01:40,0.327,0.206,0.337,0.318,0.302,0.166,0.100,�k,3.3,��
2018/03/31,01:50,0.325,0.207,0.337,0.320,0.304,0.166,0.101,�k,3.0,��
2018/03/31,02:00,0.326,0.207,0.335,0.320,0.303,0.166,0.100,�k,3.5,��
2018/03/31,02:10,0.326,0.206,0.334,0.320,0.305,0.167,0.101,�k,5.2,��
2018/03/31,02:20,0.326,0.206,0.336,0.319,0.303,0.167,0.100,�k,4.9,��
2018/03/31,02:30,0.325,0.205,0.334,0.320,0.303,0.167,0.100,�k,5.4,��
2018/03/31,02:40,0.326,0.207,0.337,0.319,0.304,0.167,0.100,�k,5.2,��
2018/03/31,02:50,0.326,0.206,0.335,0.320,0.304,0.167,0.100,�k,5.5,��
2018/03/31,03:00,0.326,0.206,0.335,0.320,0.304,0.167,0.101,�k,5.2,��
2018/03/31,03:10,0.326,0.206,0.336,0.321,0.304,0.167,0.101,�k,5.5,��
2018/03/31,03:20,0.326,0.206,0.336,0.321,0.303,0.166,0.101,�k,5.4,��
2018/03/31,03:30,0.325,0.206,0.335,0.320,0.305,0.167,0.100,�k,4.2,��
2018/03/31,03:40,0.325,0.206,0.337,0.320,0.304,0.166,0.100,�k,3.5,��
2018/03/31,03:50,0.326,0.207,0.335,0.320,0.303,0.167,0.101,�k�k��,2.9,��
2018/03/31,04:00,0.327,0.206,0.335,0.319,0.304,0.166,0.100,�k,5.5,��
2018/03/31,04:10,0.325,0.206,0.336,0.320,0.304,0.166,0.101,�k,4.8,��
2018/03/31,04:20,0.325,0.207,0.337,0.321,0.304,0.167,0.101,�k,5.4,��
2018/03/31,04:30,0.325,0.205,0.336,0.320,0.304,0.167,0.101,�k,3.9,��
2018/03/31,04:40,0.325,0.206,0.336,0.320,0.304,0.166,0.101,�k�k��,3.3,��
2018/03/31,04:50,0.324,0.207,0.336,0.320,0.303,0.167,0.100,�k�k��,4.5,��
2018/03/31,05:00,0.324,0.207,0.336,0.319,0.302,0.166,0.100,�k�k��,3.7,��
2018/03/31,05:10,0.325,0.206,0.336,0.320,0.304,0.167,0.101,�k�k��,4.0,��
2018/03/31,05:20,0.325,0.206,0.338,0.320,0.303,0.166,0.100,�k�k��,3.5,��
2018/03/31,05:30,0.326,0.206,0.336,0.320,0.303,0.166,0.100,�k�k��,3.4,��
2018/03/31,05:40,0.327,0.206,0.335,0.320,0.304,0.167,0.100,�k�k��,4.0,��
2018/03/31,05:50,0.326,0.205,0.334,0.318,0.304,0.166,0.100,�k�k��,3.6,��
2018/03/31,06:00,0.325,0.207,0.337,0.319,0.304,0.166,0.101,�k,3.7,��
2018/03/31,06:10,0.325,0.206,0.336,0.318,0.303,0.167,0.101,�k,3.6,��
2018/03/31,06:20,0.326,0.207,0.336,0.320,0.302,0.166,0.101,�k,3.4,��
2018/03/31,06:30,0.325,0.207,0.336,0.319,0.305,0.166,0.102,�k,2.9,��
2018/03/31,06:40,0.327,0.206,0.335,0.318,0.303,0.166,0.101,�k,1.9,��
2018/03/31,06:50,0.326,0.205,0.334,0.318,0.305,0.166,0.100,�k,1.4,��
2018/03/31,07:00,0.325,0.207,0.336,0.319,0.303,0.167,0.101,�k,2.8,��
2018/03/31,07:10,0.325,0.206,0.335,0.320,0.304,0.167,0.100,�k,2.0,��
2018/03/31,07:20,0.325,0.207,0.336,0.318,0.305,0.167,0.099,�k,2.0,��
2018/03/31,07:30,0.326,0.206,0.336,0.319,0.304,0.167,0.100,�k�k��,1.1,��
2018/03/31,07:40,0.325,0.206,0.335,0.318,0.303,0.166,0.099,�k�k��,0.9,��
2018/03/31,07:50,0.324,0.206,0.337,0.316,0.303,0.165,0.100,���k��,1.9,��
2018/03/31,08:00,0.325,0.206,0.335,0.319,0.303,0.167,0.100,-,CALM,��
2018/03/31,08:10,0.323,0.205,0.335,0.317,0.303,0.166,0.100,���쓌,0.7,��
2018/03/31,08:20,0.324,0.206,0.335,0.319,0.306,0.166,0.099,�k��,1.4,��
2018/03/31,08:30,0.325,0.206,0.334,0.318,0.304,0.167,0.100,���k��,0.9,��
2018/03/31,08:40,0.324,0.205,0.334,0.317,0.303,0.166,0.100,���k��,1.1,��
2018/03/31,08:50,0.324,0.205,0.336,0.317,0.305,0.167,0.100,���쓌,1.5,��
2018/03/31,09:00,0.326,0.205,0.334,0.316,0.304,0.167,0.100,��,1.8,��
2018/03/31,09:10,0.324,0.205,0.335,0.318,0.304,0.167,0.099,��,1.6,��
2018/03/31,09:20,0.326,0.205,0.336,0.316,0.304,0.165,0.100,��,2.1,��
2018/03/31,09:30,0.325,0.205,0.337,0.319,0.304,0.166,0.099,���쓌,2.2,��
2018/03/31,09:40,0.324,0.205,0.336,0.317,0.304,0.165,0.099,���쓌,1.9,��
2018/03/31,09:50,0.324,0.205,0.335,0.320,0.303,0.165,0.100,��쓌,2.3,��
2018/03/31,10:00,0.323,0.206,0.336,0.318,0.305,0.166,0.100,���쓌,1.9,��
2018/03/31,10:10,0.325,0.205,0.335,0.319,0.304,0.165,0.100,�쓌,2.8,��
2018/03/31,10:20,0.322,0.207,0.336,0.317,0.306,0.166,0.100,�쓌,2.4,��
2018/03/31,10:30,0.325,0.206,0.334,0.321,0.303,0.165,0.100,���쓌,2.3,��
2018/03/31,10:40,0.323,0.205,0.334,0.317,0.305,0.166,0.101,���쓌,2.5,��
2018/03/31,10:50,0.324,0.207,0.336,0.320,0.303,0.166,0.100,���쓌,2.1,��
2018/03/31,11:00,0.322,0.205,0.332,0.318,0.306,0.167,0.101,���쓌,2.0,��
2018/03/31,11:10,0.327,0.206,0.336,0.320,0.302,0.166,0.100,���쓌,2.3,��
2018/03/31,11:20,0.321,0.206,0.333,0.318,0.304,0.166,0.101,���쓌,1.7,��
2018/03/31,11:30,0.325,0.206,0.335,0.321,0.303,0.166,0.100,�쓌,2.3,��
2018/03/31,11:40,0.323,0.205,0.332,0.318,0.307,0.166,0.100,��쓌,2.1,��
2018/03/31,11:50,0.323,0.206,0.336,0.320,0.302,0.166,0.100,��쓌,1.7,��
2018/03/31,12:00,0.325,0.205,0.333,0.320,0.306,0.167,0.100,��쓌,1.8,��
2018/03/31,12:10,0.323,0.205,0.336,0.320,0.303,0.166,0.100,��,2.9,��
2018/03/31,12:20,0.325,0.206,0.334,0.319,0.303,0.167,0.101,��,2.0,��
2018/03/31,12:30,0.322,0.206,0.333,0.318,0.305,0.166,0.099,��쓌,3.4,��
2018/03/31,12:40,0.326,0.206,0.334,0.320,0.303,0.167,0.101,��쓌,2.7,��
2018/03/31,12:50,0.324,0.206,0.333,0.318,0.305,0.165,0.100,��쓌,3.8,��
2018/03/31,13:00,0.324,0.206,0.337,0.320,0.304,0.167,0.100,��쓌,4.8,��
2018/03/31,13:10,0.326,0.207,0.332,0.318,0.306,0.166,0.100,��,7.9,��
2018/03/31,13:20,0.323,0.207,0.337,0.320,0.303,0.167,0.100,��,7.2,��
2018/03/31,13:30,0.326,0.207,0.334,0.318,0.305,0.166,0.100,��,8.2,��
2018/03/31,13:40,0.324,0.206,0.336,0.320,0.304,0.165,0.100,��,6.5,��
2018/03/31,13:50,0.325,0.207,0.334,0.319,0.304,0.167,0.101,��,5.4,��
2018/03/31,14:00,0.324,0.205,0.334,0.321,0.305,0.167,0.100,��,7.8,��
2018/03/31,14:10,0.323,0.206,0.336,0.318,0.304,0.166,0.100,��,7.1,��
2018/03/31,14:20,0.325,0.205,0.332,0.320,0.306,0.167,0.100,��,6.0,��
2018/03/31,14:30,0.323,0.207,0.336,0.320,0.303,0.167,0.100,��쓌,6.7,��
2018/03/31,14:40,0.326,0.206,0.334,0.321,0.305,0.165,0.099,��,6.5,��
2018/03/31,14:50,0.323,0.207,0.336,0.320,0.304,0.167,0.101,��,8.6,��
2018/03/31,15:00,0.323,0.206,0.336,0.321,0.303,0.167,0.100,��,6.9,��
2018/03/31,15:10,0.325,0.206,0.336,0.318,0.305,0.166,0.101,��,6.3,��
2018/03/31,15:20,0.323,0.206,0.336,0.321,0.303,0.167,0.100,��,5.5,��
2018/03/31,15:30,0.325,0.206,0.338,0.320,0.306,0.166,0.100,��쓌,7.2,��
2018/03/31,15:40,0.322,0.207,0.336,0.320,0.303,0.167,0.100,��쓌,7.3,��
2018/03/31,15:50,0.326,0.208,0.338,0.322,0.306,0.167,0.100,��,3.8,��
2018/03/31,16:00,0.325,0.207,0.336,0.320,0.304,0.166,0.101,��,6.6,��
2018/03/31,16:10,0.325,0.208,0.337,0.321,0.305,0.167,0.100,��,8.4,��
2018/03/31,16:20,0.324,0.208,0.337,0.321,0.306,0.166,0.100,��,8.9,��
2018/03/31,16:30,0.325,0.209,0.336,0.322,0.307,0.167,0.101,��,10.0,��
2018/03/31,16:40,0.325,0.207,0.336,0.321,0.305,0.166,0.101,��,10.0,��
2018/03/31,16:50,0.327,0.207,0.335,0.320,0.304,0.166,0.100,��,10.1,��
2018/03/31,17:00,0.325,0.207,0.335,0.322,0.307,0.167,0.100,��,10.4,��
2018/03/31,17:10,0.324,0.208,0.338,0.321,0.304,0.167,0.100,��,8.1,��
2018/03/31,17:20,0.326,0.207,0.335,0.320,0.307,0.168,0.100,��,8.3,��
2018/03/31,17:30,0.323,0.207,0.336,0.321,0.305,0.166,0.100,��,9.2,��
2018/03/31,17:40,0.325,0.207,0.337,0.321,0.306,0.167,0.100,��,9.0,��
2018/03/31,17:50,0.326,0.208,0.335,0.320,0.307,0.168,0.100,��,6.5,��
2018/03/31,18:00,0.323,0.208,0.336,0.321,0.305,0.168,0.100,��쐼,5.7,��
2018/03/31,18:10,0.326,0.206,0.335,0.321,0.307,0.167,0.100,��,7.8,��
2018/03/31,18:20,0.324,0.208,0.336,0.321,0.306,0.167,0.100,��,7.0,��
2018/03/31,18:30,0.325,0.207,0.337,0.321,0.306,0.168,0.100,��쐼,4.5,��
2018/03/31,18:40,0.326,0.207,0.337,0.320,0.307,0.167,0.100,��,5.4,��
2018/03/31,18:50,0.325,0.207,0.335,0.321,0.304,0.167,0.100,��쐼,7.9,��
2018/03/31,19:00,0.325,0.207,0.337,0.321,0.306,0.166,0.100,��쐼,10.1,��
2018/03/31,19:10,0.326,0.207,0.337,0.320,0.306,0.167,0.100,��쐼,9.0,��
2018/03/31,19:20,0.325,0.208,0.336,0.321,0.305,0.166,0.100,��쐼,8.4,��
2018/03/31,19:30,0.326,0.207,0.336,0.321,0.306,0.168,0.100,��쐼,8.1,��
2018/03/31,19:40,0.325,0.206,0.335,0.320,0.306,0.167,0.100,��쐼,8.1,��
2018/03/31,19:50,0.324,0.208,0.336,0.321,0.305,0.167,0.101,��쐼,8.8,��
2018/03/31,20:00,0.325,0.208,0.336,0.320,0.306,0.167,0.100,��쐼,7.6,��
2018/03/31,20:10,0.324,0.208,0.335,0.320,0.305,0.167,0.100,��쐼,8.3,��
2018/03/31,20:20,0.325,0.207,0.338,0.321,0.303,0.166,0.100,��쐼,9.2,��
2018/03/31,20:30,0.326,0.207,0.336,0.322,0.306,0.167,0.100,��쐼,9.0,��
2018/03/31,20:40,0.325,0.208,0.336,0.319,0.304,0.167,0.101,��쐼,7.8,��
2018/03/31,20:50,0.324,0.207,0.338,0.322,0.304,0.168,0.101,��쐼,7.9,��
2018/03/31,21:00,0.326,0.207,0.335,0.319,0.304,0.167,0.100,��쐼,6.9,��
2018/03/31,21:10,0.325,0.208,0.336,0.321,0.304,0.167,0.100,��쐼,8.5,��
2018/03/31,21:20,0.325,0.207,0.337,0.321,0.307,0.166,0.100,��쐼,9.6,��
2018/03/31,21:30,0.326,0.208,0.335,0.321,0.306,0.166,0.100,��쐼,8.8,��
2018/03/31,21:40,0.324,0.208,0.335,0.319,0.303,0.167,0.100,��쐼,10.3,��
2018/03/31,21:50,0.324,0.207,0.338,0.321,0.305,0.167,0.100,��쐼,8.5,��
2018/03/31,22:00,0.326,0.208,0.335,0.322,0.303,0.167,0.100,��쐼,8.9,��
2018/03/31,22:10,0.325,0.207,0.336,0.321,0.305,0.167,0.100,��쐼,9.0,��
2018/03/31,22:20,0.325,0.206,0.335,0.321,0.306,0.166,0.100,��쐼,9.2,��
2018/03/31,22:30,0.327,0.206,0.336,0.319,0.304,0.166,0.099,��쐼,8.6,��
2018/03/31,22:40,0.324,0.207,0.336,0.321,0.307,0.166,0.100,��쐼,6.9,��
2018/03/31,22:50,0.326,0.207,0.335,0.321,0.303,0.168,0.100,��쐼,5.8,��
2018/03/31,23:00,0.325,0.207,0.336,0.319,0.307,0.167,0.100,��쐼,5.8,��
2018/03/31,23:10,0.324,0.206,0.336,0.321,0.306,0.167,0.101,��쐼,5.3,��
2018/03/31,23:20,0.326,0.207,0.335,0.320,0.305,0.166,0.100,��쐼,6.1,��
2018/03/31,23:30,0.325,0.207,0.337,0.320,0.306,0.167,0.101,�쐼,4.5,��
2018/03/31,23:40,0.324,0.207,0.337,0.322,0.305,0.166,0.100,�쐼,5.2,��
2018/03/31,23:50,0.326,0.207,0.337,0.320,0.306,0.167,0.101,�쐼,5.0,��
